Time,TemperatureF,DewpointF,PressureIn,WindDirection,WindDirectionDegrees,WindSpeedMPH,WindSpeedGustMPH,Humidity,HourlyPrecipIn,Conditions,Clouds,dailyrainin,SoftwareType,DateUTC
2013-06-29 00:00:00,79.0,-99.9,-100.00,WNW,290,6.0,9.0,-999,-99.99,,,-99.99,,2013-06-29 07:00:00,
2013-06-29 00:02:00,81.0,-99.9,-100.00,WNW,283,5.0,7.0,-999,-99.99,,,-99.99,,2013-06-29 07:02:00,
2013-06-29 00:43:00,79.0,-99.9,-100.00,WNW,290,6.0,9.0,-999,-99.99,,,-99.99,,2013-06-29 07:43:00,
2013-06-29 00:53:00,79.0,-99.9,-100.00,WNW,290,6.0,9.0,-999,-99.99,,,-99.99,,2013-06-29 07:53:00,
2013-06-29 01:43:00,79.0,-99.9,-100.00,SW,236,4.0,12.0,-999,-99.99,,,-99.99,,2013-06-29 08:43:00,
2013-06-29 01:52:00,79.0,-99.9,-100.00,SW,236,4.0,12.0,-999,-99.99,,,-99.99,,2013-06-29 08:52:00,
2013-06-29 02:00:00,77.0,-99.9,-100.00,NW,309,4.0,11.0,-999,-99.99,,,-99.99,,2013-06-29 09:00:00,
2013-06-29 02:12:00,78.0,-99.9,-100.00,WSW,256,10.0,15.0,-999,-99.99,,,-99.99,,2013-06-29 09:12:00,
2013-06-29 02:22:00,78.0,-99.9,-100.00,WSW,256,10.0,15.0,-999,-99.99,,,-99.99,,2013-06-29 09:22:00,
2013-06-29 02:42:00,77.0,-99.9,-100.00,NW,309,4.0,11.0,-999,-99.99,,,-99.99,,2013-06-29 09:42:00,
2013-06-29 02:53:00,77.0,-99.9,-100.00,NW,309,4.0,11.0,-999,-99.99,,,-99.99,,2013-06-29 09:53:00,
2013-06-29 03:00:00,73.0,-99.9,-100.00,West,267,11.0,18.0,-999,-99.99,,,-99.99,,2013-06-29 10:00:00,
2013-06-29 03:43:00,73.0,-99.9,-100.00,West,267,11.0,18.0,-999,-99.99,,,-99.99,,2013-06-29 10:43:00,
2013-06-29 03:53:00,73.0,-99.9,-100.00,West,267,11.0,18.0,-999,-99.99,,,-99.99,,2013-06-29 10:53:00,
2013-06-29 04:00:00,75.0,-99.9,-100.00,West,275,8.0,11.0,-999,-99.99,,,-99.99,,2013-06-29 11:00:00,
2013-06-29 04:24:00,73.0,-99.9,-100.00,West,266,8.0,12.0,-999,-99.99,,,-99.99,,2013-06-29 11:24:00,
2013-06-29 04:43:00,73.0,-99.9,-100.00,West,263,8.0,11.0,-999,-99.99,,,-99.99,,2013-06-29 11:43:00,
2013-06-29 04:53:00,75.0,-99.9,-100.00,West,275,8.0,11.0,-999,-99.99,,,-99.99,,2013-06-29 11:53:00,
2013-06-29 05:00:00,73.0,-99.9,-100.00,NNW,337,4.0,10.0,-999,-99.99,,,-99.99,,2013-06-29 12:00:00,
2013-06-29 05:43:00,73.0,-99.9,-100.00,NNW,337,4.0,10.0,-999,-99.99,,,-99.99,,2013-06-29 12:43:00,
2013-06-29 05:53:00,73.0,-99.9,-100.00,NNW,337,4.0,10.0,-999,-99.99,,,-99.99,,2013-06-29 12:53:00,
2013-06-29 06:20:00,70.0,-99.9,-100.00,WNW,292,7.0,14.0,-999,-99.99,,,-99.99,,2013-06-29 13:20:00,
2013-06-29 06:43:00,70.0,-99.9,-100.00,WNW,283,5.0,9.0,-999,-99.99,,,-99.99,,2013-06-29 13:43:00,
2013-06-29 06:53:00,70.0,-99.9,-100.00,WNW,283,5.0,9.0,-999,-99.99,,,-99.99,,2013-06-29 13:53:00,
2013-06-29 07:10:00,70.0,-99.9,-100.00,NW,314,12.0,14.0,-999,-99.99,,,-99.99,,2013-06-29 14:10:00,
2013-06-29 07:12:00,70.0,-99.9,-100.00,WNW,292,7.0,14.0,-999,-99.99,,,-99.99,,2013-06-29 14:12:00,
2013-06-29 07:45:00,73.0,-99.9,-100.00,West,263,10.0,13.0,-999,-99.99,,,-99.99,,2013-06-29 14:45:00,
2013-06-29 07:54:00,70.0,-99.9,-100.00,NW,314,12.0,14.0,-999,-99.99,,,-99.99,,2013-06-29 14:54:00,
2013-06-29 08:02:00,70.0,-99.9,-100.00,NW,314,12.0,14.0,-999,-99.99,,,-99.99,,2013-06-29 15:02:00,
2013-06-29 08:43:00,72.0,-99.9,-100.00,West,260,10.0,15.0,-999,-99.99,,,-99.99,,2013-06-29 15:43:00,
2013-06-29 08:54:00,72.0,-99.9,-100.00,West,260,10.0,15.0,-999,-99.99,,,-99.99,,2013-06-29 15:54:00,
2013-06-29 09:10:00,78.0,-99.9,-100.00,NW,317,4.0,16.0,-999,-99.99,,,-99.99,,2013-06-29 16:10:00,
2013-06-29 09:12:00,75.0,-99.9,-100.00,WSW,252,9.0,17.0,-999,-99.99,,,-99.99,,2013-06-29 16:12:00,
2013-06-29 09:53:00,78.0,-99.9,-100.00,NW,317,4.0,16.0,-999,-99.99,,,-99.99,,2013-06-29 16:53:00,
2013-06-29 10:02:00,78.0,-99.9,-100.00,NW,317,4.0,16.0,-999,-99.99,,,-99.99,,2013-06-29 17:02:00,
2013-06-29 10:20:00,82.0,-99.9,-100.00,West,279,7.0,11.0,-999,-99.99,,,-99.99,,2013-06-29 17:20:00,
2013-06-29 10:34:00,77.0,-99.9,-100.00,WNW,283,8.0,13.0,-999,-99.99,,,-99.99,,2013-06-29 17:34:00,
2013-06-29 10:42:00,77.0,-99.9,-100.00,WNW,283,8.0,13.0,-999,-99.99,,,-99.99,,2013-06-29 17:42:00,
2013-06-29 10:53:00,77.0,-99.9,-100.00,WNW,283,8.0,13.0,-999,-99.99,,,-99.99,,2013-06-29 17:53:00,
2013-06-29 11:00:00,78.0,-99.9,-100.00,WSW,246,8.0,15.0,-999,-99.99,,,-99.99,,2013-06-29 18:00:00,
2013-06-29 11:12:00,82.0,-99.9,-100.00,West,279,7.0,11.0,-999,-99.99,,,-99.99,,2013-06-29 18:12:00,
2013-06-29 11:43:00,78.0,-99.9,-100.00,WSW,246,8.0,15.0,-999,-99.99,,,-99.99,,2013-06-29 18:43:00,
2013-06-29 11:53:00,78.0,-99.9,-100.00,WSW,246,8.0,15.0,-999,-99.99,,,-99.99,,2013-06-29 18:53:00,
2013-06-29 12:00:00,84.0,-99.9,-100.00,West,281,8.0,12.0,-999,-99.99,,,-99.99,,2013-06-29 19:00:00,
2013-06-29 12:43:00,84.0,-99.9,-100.00,West,281,8.0,12.0,-999,-99.99,,,-99.99,,2013-06-29 19:43:00,
2013-06-29 12:54:00,84.0,-99.9,-100.00,West,281,8.0,12.0,-999,-99.99,,,-99.99,,2013-06-29 19:54:00,
2013-06-29 13:00:00,87.0,-99.9,-100.00,West,266,12.0,16.0,-999,-99.99,,,-99.99,,2013-06-29 20:00:00,
2013-06-29 13:33:00,87.0,-99.9,-100.00,West,266,12.0,16.0,-999,-99.99,,,-99.99,,2013-06-29 20:33:00,
2013-06-29 13:43:00,87.0,-99.9,-100.00,West,266,12.0,16.0,-999,-99.99,,,-99.99,,2013-06-29 20:43:00,
2013-06-29 13:52:00,87.0,-99.9,-100.00,West,266,12.0,16.0,-999,-99.99,,,-99.99,,2013-06-29 20:52:00,
2013-06-29 14:00:00,88.0,-99.9,-100.00,West,275,10.0,13.0,-999,-99.99,,,-99.99,,2013-06-29 21:00:00,
2013-06-29 14:42:00,88.0,-99.9,-100.00,West,275,10.0,13.0,-999,-99.99,,,-99.99,,2013-06-29 21:42:00,
2013-06-29 14:52:00,88.0,-99.9,-100.00,West,275,10.0,13.0,-999,-99.99,,,-99.99,,2013-06-29 21:52:00,
2013-06-29 15:43:00,87.0,-99.9,-100.00,WNW,283,6.0,20.0,-999,-99.99,,,-99.99,,2013-06-29 22:43:00,
2013-06-29 15:54:00,87.0,-99.9,-100.00,WNW,283,6.0,20.0,-999,-99.99,,,-99.99,,2013-06-29 22:54:00,
2013-06-29 16:00:00,88.0,-99.9,-100.00,West,281,5.0,19.0,-999,-99.99,,,-99.99,,2013-06-29 23:00:00,
2013-06-29 16:12:00,90.0,-99.9,-100.00,WNW,287,13.0,18.0,-999,-99.99,,,-99.99,,2013-06-29 23:12:00,
2013-06-29 16:24:00,90.0,-99.9,-100.00,WNW,287,13.0,18.0,-999,-99.99,,,-99.99,,2013-06-29 23:24:00,
2013-06-29 16:34:00,88.0,-99.9,-100.00,West,281,5.0,19.0,-999,-99.99,,,-99.99,,2013-06-29 23:34:00,
2013-06-29 16:43:00,88.0,-99.9,-100.00,West,281,5.0,19.0,-999,-99.99,,,-99.99,,2013-06-29 23:43:00,
2013-06-29 16:53:00,88.0,-99.9,-100.00,West,281,5.0,19.0,-999,-99.99,,,-99.99,,2013-06-29 23:53:00,
2013-06-29 18:33:00,88.0,-99.9,-100.00,WNW,293,12.0,15.0,-999,-99.99,,,-99.99,,2013-06-30 01:33:00,
2013-06-29 18:44:00,88.0,-99.9,-100.00,WNW,293,12.0,15.0,-999,-99.99,,,-99.99,,2013-06-30 01:44:00,
2013-06-29 18:53:00,87.0,-99.9,-100.00,West,268,5.0,16.0,-999,-99.99,,,-99.99,,2013-06-30 01:53:00,
2013-06-29 19:12:00,90.0,-99.9,-100.00,NNW,327,4.0,12.0,-999,-99.99,,,-99.99,,2013-06-30 02:12:00,
2013-06-29 19:24:00,90.0,-99.9,-100.00,NNW,327,4.0,12.0,-999,-99.99,,,-99.99,,2013-06-30 02:24:00,
2013-06-29 19:34:00,89.0,-99.9,-100.00,West,273,2.0,14.0,-999,-99.99,,,-99.99,,2013-06-30 02:34:00,
2013-06-29 19:43:00,89.0,-99.9,-100.00,West,273,2.0,14.0,-999,-99.99,,,-99.99,,2013-06-30 02:43:00,
2013-06-29 19:53:00,89.0,-99.9,-100.00,West,273,2.0,14.0,-999,-99.99,,,-99.99,,2013-06-30 02:53:00,
2013-06-29 20:12:00,88.0,-99.9,-100.00,West,281,4.0,12.0,-999,-99.99,,,-99.99,,2013-06-30 03:12:00,
2013-06-29 20:23:00,88.0,-99.9,-100.00,West,281,4.0,12.0,-999,-99.99,,,-99.99,,2013-06-30 03:23:00,
2013-06-29 20:43:00,84.0,-99.9,-100.00,WNW,295,8.0,17.0,-999,-99.99,,,-99.99,,2013-06-30 03:43:00,
2013-06-29 20:53:00,84.0,-99.9,-100.00,WNW,295,8.0,17.0,-999,-99.99,,,-99.99,,2013-06-30 03:53:00,
2013-06-29 21:10:00,81.0,-99.9,-100.00,NW,323,5.0,8.0,-999,-99.99,,,-99.99,,2013-06-30 04:10:00,
2013-06-29 21:12:00,83.0,-99.9,-100.00,West,273,6.0,16.0,-999,-99.99,,,-99.99,,2013-06-30 04:12:00,
2013-06-29 21:33:00,81.0,-99.9,-100.00,WSW,247,4.0,9.0,-999,-99.99,,,-99.99,,2013-06-30 04:33:00,
2013-06-29 21:43:00,81.0,-99.9,-100.00,WSW,247,4.0,9.0,-999,-99.99,,,-99.99,,2013-06-30 04:43:00,
2013-06-29 21:53:00,81.0,-99.9,-100.00,NW,323,5.0,8.0,-999,-99.99,,,-99.99,,2013-06-30 04:53:00,
2013-06-29 22:02:00,81.0,-99.9,-100.00,NW,323,5.0,8.0,-999,-99.99,,,-99.99,,2013-06-30 05:02:00,
2013-06-29 22:10:00,80.0,-99.9,-100.00,WNW,301,3.0,7.0,-999,-99.99,,,-99.99,,2013-06-30 05:10:00,
2013-06-29 22:34:00,79.0,-99.9,-100.00,NW,308,4.0,8.0,-999,-99.99,,,-99.99,,2013-06-30 05:34:00,
2013-06-29 22:43:00,79.0,-99.9,-100.00,NW,308,4.0,8.0,-999,-99.99,,,-99.99,,2013-06-30 05:43:00,
2013-06-29 22:53:00,80.0,-99.9,-100.00,WNW,301,3.0,7.0,-999,-99.99,,,-99.99,,2013-06-30 05:53:00,
2013-06-29 23:00:00,76.0,-99.9,-100.00,WSW,253,3.0,5.0,-999,-99.99,,,-99.99,,2013-06-30 06:00:00,
2013-06-29 23:02:00,80.0,-99.9,-100.00,WNW,301,3.0,7.0,-999,-99.99,,,-99.99,,2013-06-30 06:02:00,
2013-06-29 23:43:00,76.0,-99.9,-100.00,WSW,253,3.0,5.0,-999,-99.99,,,-99.99,,2013-06-30 06:43:00,
2013-06-29 23:53:00,76.0,-99.9,-100.00,WSW,253,3.0,5.0,-999,-99.99,,,-99.99,,2013-06-30 06:53:00,